This is the latest recevied weather packets stored in our database for station/object IK2ILW-6. If no packets are shown the sender has not sent any weather packets the latest 10 day(s).
| Time | Temp. | Humidity | Pressure | Rain* | Wind** | Luminosity | Snow |
|---|---|---|---|---|---|---|---|
| 1777797984 | 10° C | 50% | 1021.9 hPa | 0 mm | - | 751 W/m² | - |
| 1777797688 | 10° C | 51% | 1022 hPa | 0 mm | - | 666 W/m² | - |
| 1777797388 | 10.56° C | 51% | 1021.9 hPa | 0 mm | - | 629 W/m² | - |
| 1777797091 | 10.56° C | 51% | 1022 hPa | 0 mm | - | 654 W/m² | - |
| 1777796794 | 10.56° C | 53% | 1022 hPa | 0 mm | - | 696 W/m² | - |
| 1777796499 | 10° C | 53% | 1021.9 hPa | 0 mm | - | 696 W/m² | - |
| 1777796186 | 10° C | 54% | 1022 hPa | 0 mm | - | 649 W/m² | - |
| 1777795889 | 9.44° C | 53% | 1022 hPa | 0 mm | - | 622 W/m² | - |
| 1777795593 | 9.44° C | 50% | 1021.9 hPa | 0 mm | - | 601 W/m² | - |
| 1777795298 | 9.44° C | 53% | 1021.9 hPa | 0 mm | - | 550 W/m² | - |
| 1777794982 | 9.44° C | 50% | 1021.9 hPa | 0 mm | - | 531 W/m² | - |
| 1777794686 | 9.44° C | 49% | 1021.9 hPa | 0 mm | - | 520 W/m² | - |
| 1777794389 | 9.44° C | 51% | 1021.8 hPa | 0 mm | - | 541 W/m² | - |
| 1777794095 | 9.44° C | 51% | 1021.9 hPa | 0 mm | - | 547 W/m² | - |
| 1777793799 | 10° C | 50% | 1021.8 hPa | 0 mm | - | 527 W/m² | - |
| 1777793502 | 10° C | 51% | 1021.9 hPa | 0 mm | - | 464 W/m² | - |
| 1777793187 | 10° C | 48% | 1021.9 hPa | 0 mm | - | 517 W/m² | - |
| 1777792895 | 10° C | 47% | 1021.8 hPa | 0 mm | - | 541 W/m² | - |
| 1777792600 | 10.56° C | 49% | 1021.9 hPa | 0 mm | - | 584 W/m² | - |
| 1777792285 | 10° C | 46% | 1021.9 hPa | 0 mm | - | 531 W/m² | - |
| 1777791989 | 10° C | 47% | 1021.9 hPa | 0 mm | - | 490 W/m² | - |
| 1777791692 | 10° C | 44% | 1021.9 hPa | 0 mm | - | 434 W/m² | - |
| 1777791395 | 10° C | 45% | 1021.9 hPa | 0 mm | - | 483 W/m² | - |
| 1777791097 | 9.44° C | 43% | 1021.9 hPa | 0 mm | - | 483 W/m² | - |
| 1777790800 | 9.44° C | 43% | 1021.9 hPa | 0 mm | - | 439 W/m² | - |
* Rain latest hour (hover to see other rain measurements)
** Current wind speed in m/s (hover to see current wind gust speed)